Regional Weather Roundup
Issued by NWS

Home | Current Version | Previous Version | Graphics & Text | Print | Product List | Glossary On
Versions: 1 2 3 4 5 6 7 8 9 10 11 12 13 14 15 16 17 18 19 20 21 22 23 24 25 26 27 28 29 30 31 32 33 34 35 36 37 38 39 40 41 42 43 44 45 46 47 48 49 50
000
ASUS43 KMKX 190521
RWRWI

WISCONSIN REGIONAL WEATHER ROUNDUP
NATIONAL WEATHER SERVICE MILWAUKEE/SULLIVAN WI
1200 AM CDT SUN APR 19 2015

NOTE: "FAIR" INDICATES FEW OR NO CLOUDS BELOW 12,000 FEET WITH NO
SIGNIFICANT WEATHER AND/OR OBSTRUCTIONS TO VISIBILITY.

WIZ001-002-006>008-014>016-023>028-190600-
NORTHWEST WISCONSIN

CITY           SKY/WX    TMP DP  RH WIND       PRES   REMARKS
SUPERIOR ARPT  CLOUDY    38  32  79 E8        30.01F WCI  32
ASHLAND        CLOUDY    35  33  92 CALM      30.00F
HAYWARD        CLOUDY    55  10  16 VRB6      29.96F
SIREN          CLOUDY    52  34  49 E3        29.94F
CUMBERLAND     CLOUDY    52  18  25 SE16G23   29.96F
RICE LAKE      CLOUDY    54  19  24 SE13      29.98S
CHETEK         CLOUDY    54  21  27 SE13      29.97S
LADYSMITH      CLOUDY    54  11  18 E12       29.99F
EAU CLAIRE     LGT RAIN  53  23  31 E9        29.96R
MENOMONIE      LGT RAIN  52  34  49 E8        29.97S
NEW RICHMOND   LGT RAIN  51  38  60 SE9       29.95R
OSCEOLA        LGT RAIN  52  41  65 SE9       29.96S
$$

WIZ003>005-009-010-017-018-190600-
NORTH CENTRAL WISCONSIN

CITY           SKY/WX    TMP DP  RH WIND       PRES   REMARKS
MANITOWISH WTR MOCLDY    49  12  23 SE14      30.02F
ARBOR VITAE    HAZE      52  16  23 SE17G23   30.03F VSB 1/2
WOODRUFF       HAZE      52  16  23 SE17G23   30.03F VSB 1/2
RHINELANDER    MOCLDY    47  14  26 E13       30.06S
EAGLE RIVER    PTCLDY    46  21  37 SE12      30.06S
LAND O LAKES   PTCLDY    45  29  54 SE7       30.06F
PHILLIPS       CLOUDY    50  15  24 SE12      30.00S
TOMAHAWK       CLOUDY    48  10  21 CALM      30.03F
MEDFORD        CLOUDY    48  16  27 E13G20    30.00F
MERRILL        CLOUDY    49  18  29 E12G17    30.03F
$$

WIZ029-030-035-036-043>047-190600-
CENTRAL WISCONSIN

CITY           SKY/WX    TMP DP  RH WIND       PRES   REMARKS
WAUSAU         MOCLDY    49  17  28 E17G24    30.00F
MOSINEE        MOCLDY    46  19  34 E13G18    30.02F
MARSHFIELD     CLOUDY    49  21  33 E15       29.99F
STEVENS POINT  MOCLDY    47  21  35 E15G21    30.03F
WAUPACA        CLEAR     49  25  40 E6        30.04F
WAUTOMA        PTCLDY    48  27  44 NE6       30.02F
WISC RAPIDS    MOCLDY    49  19  30 E12G22    30.02F
CAMP DOUGLAS   MOCLDY    50  27  41 E9        29.96F
$$

WIZ011>013-019>022-031-037>040-048>050-190600-
NORTHEAST WISCONSIN

CITY           SKY/WX    TMP DP  RH WIND       PRES   REMARKS
ANTIGO         PTCLDY    45  24  43 E20       30.05F
SHAWANO        CLEAR     47  29  48 E9        30.07F
OCONTO         CLEAR     46  31  56 E7        30.08S
STURGEON BAY   CLEAR     45  28  53 SE9       30.11S
GREEN BAY      CLEAR     47  29  49 E9        30.07S
MANITOWOC      CLEAR     39  33  79 N3        30.08F
APPLETON       CLEAR     46  27  46 E7        30.05F
CLINTONVILLE   CLEAR     45  27  49 E7        30.06F
OSHKOSH        CLEAR     48  32  53 E8        30.03F
$$

WIZ032>034-041-042-053>061-190600-
SOUTHWEST WISCONSIN

CITY           SKY/WX    TMP DP  RH WIND       PRES   REMARKS
LA CROSSE      CLOUDY    59  26  28 S5        29.93S
SPARTA         CLOUDY    54  25  32 E13G18    29.96S
VIROQUA        CLOUDY    53  29  40 E20       29.92F
BOSCOBEL       CLOUDY    58  32  37 NE6       29.93F
PRAIRIE DU CHI CLOUDY    61  32  32 S5        29.93R
PLATTEVILLE    MOCLDY    55  31  39 E14       29.93S
$$

WIZ056-057-062-063-064-067-068-190600-
SOUTH CENTRAL WISCONSIN

CITY           SKY/WX    TMP DP  RH WIND       PRES   REMARKS
REEDSBURG      MOCLDY    50  29  44 E7        29.97F
BARABOO/DELLS  MOCLDY    48  26  42 E12       29.97F
LONE ROCK      CLOUDY    54  29  38 E15       29.94F
MINERAL POINT  CLOUDY    55  28  35 E14       29.93F
MADISON        MOCLDY    49  30  48 E5        29.97F
MIDDLETON      MOCLDY    52  28  40 E5        29.97F
WATERTOWN      PTCLDY    48  30  49 E13       29.98F
MONROE         MOCLDY    50  34  53 NE14      29.93F
JANESVILLE     PTCLDY    50  30  46 E9        29.95F
$$

WIZ051-052-058>065-066-070>072-190600-
SOUTHEAST WISCONSIN

CITY           SKY/WX    TMP DP  RH WIND       PRES   REMARKS
MILWAUKEE      PTCLDY    43  31  62 NE6       30.02F
WAUKESHA       CLEAR     43  30  61 E5        30.02F
MILWAUKEE/TIMM CLEAR     46  27  46 E6        30.03F
RACINE         PTCLDY    43  33  68 NE7       30.02F
BURLINGTON     CLEAR     45  31  57 E9        29.98F
KENOSHA        PTCLDY    48  32  53 E10       30.00F
FOND DU LAC    PTCLDY    47  28  47 CALM      30.02F
SHEBOYGAN      CLEAR     40  31  70 CALM      30.05F
WEST BEND      CLEAR     43  28  56 CALM      30.03F
JUNEAU         PTCLDY    48  28  45 E10       30.00F
$$

LSZ147-162-190600-
LAKE SUPERIOR

STATION/POSITION TIME  TEMP    WIND        PRES    WAVE
                       AIR SEA DIR/SP/G            HT/PER
                 (UTC) (F)     (DEG/KT/KT) (MB)    (FT/S)
DEVILS ISLAND    0500   39      70/ 12/ 13 1016.9F
PORT WING        0420   37      40/  4/ 25 1016.6F
SAXON HARBOR     0400   35        CALM     1015.9
$$

LMZ867-665-643>646-190600-
LAKE MICHIGAN

STATION/POSITION TIME  TEMP    WIND        PRES    WAVE
                       AIR SEA DIR/SP/G            HT/PER
                 (UTC) (F)     (DEG/KT/KT) (MB)    (FT/S)
CHAMBERS ISLAND  0400   40      30/ 11/ 14 1020.0F
NORTHPORT PIER   0400   44      70/ 16/ 19 1020.0F
SISTER BAY       0402   46     120/ 10/ 17   N/A
KEWAUNEE LAKESHO 0400   41      40/ 12/ 15 1017.9F
SHEBOYGAN LAKESH 0500   44      10/  7/  8 1018.3F
PORT WASHINGTON  0400   46     350/  3/  5 1018.6
MILWAUKEE LAKESH 0500   46      30/  9/  9   N/A
KENOSHA   LAKESH 0500   47      50/  6/  9 1015.9F
$$

TC  - TEMPERATURE IN CELSIUS
VSB - VISIBILITY IN STATUTE MILES
WCI - WIND CHILL INDEX
HX  - HEAT INDEX



USA.gov is the U.S. government's official web portal to all federal, state and local government web resources and services.